DRAGON CRS-33

Satellite information

Favourite Embed

Satellite Type and Status

PAYLOADIN ORBIT

Key statistics

Satellite DRAGON CRS-33 at a glance.

Uptime

25

Days in orbit

Revolutions

≈ 15.5

Per day

Orbit

LEO

Low Earth Orbit

Inclination

51.6

Latest

Satellite identification and parameters

Extended collection of information and parameters for DRAGON CRS-33.

Object identification

Identified? True

Debris? False

Object name: DRAGON CRS-33

International designator: 2025-186A

Object number (NORAD): 65304

Object ID (CCSDS): 65304

Country: UNITED STATES OF AMERICA (US)

Current information (Y/N): Y

Orbital parameters

Period: 92.882 minutes

Inclination: 51.6329 deg

SMA: 6793.809 km

Apoapsis: 418.648 km

Periapsis: 412.7 km

RAAN: 207.8756 deg

Eccentricy: 0.00043771

Argument of periapsis: 351.2823 deg

Mean anomaly: 8.8089 deg

Mean motion: 15.5036082 rev/day

Mean motion (dot): 0.00008967 rev/day2

B* drag term: 0.0001628398 1/REarth

Two-line elements (TLE)

Creation date: Sept. 18, 2025, 3:57 a.m.

Reference frame: TEME

Reference center: EARTH

Epoch: Sept. 17, 2025, 7:59 p.m. UTC

TLE line 0: 0 DRAGON CRS-33

TLE line 1: 1 65304U 25186A 25260.83266141 .00008967 00000-0 16284-3 0 9990

TLE line 2: 2 65304 51.6329 207.8756 0004377 351.2823 8.8089 15.50360820 111

Live tracking on map

Real-time ground track for satellite DRAGON CRS-33.

In-orbit conjunctions

There are no conjunctions computed for DRAGON CRS-33, at the moment. Check back to stay up to date, as we update our databases every day.

Go to all conjunctions

Associated space launch

33rd commercial resupply services mission to the International Space Station operated by SpaceX. The flight will be conducted under the second Commercial Resupply Services contract with NASA. Cargo Dragon 2 brings supplies and payloads, including critical materials to directly support science and research investigations that occur onboard the orbiting laboratory. The CRS SpX-33 Mission will be the first mission including a boost module inside the dragons trunk for ISS orbit raising.

DRAGON CRS-33 was lifted into orbit during the mission ‘Falcon 9 Block 5 | Dragon CRS-2 SpX-33’, on board a Falcon 9 space rocket.

The launch took place on Aug. 24, 2025, 6:45 a.m. from Space Launch Complex 40.

For more information about the launch, click the button.

Launch to space Falcon 9 Block 5 | Dragon CRS-2 SpX-33
Falcon 9 Block 5 | Dragon CRS-2 SpX-33

Agency: National Aeronautics and Space Administration

Status: Launch Successful

Launch date: Aug. 24, 2025, 6:45 a.m. UTC

Rocket: Falcon 9

Launch pad: Space Launch Complex 40

Location: Cape Canaveral SFS, FL, USA

...

Latest news about this satellite

News about space launch
Cargo ship docks with International Space Station

Launched Sunday from Cape Canaveral Space Force Station atop a Falcon 9 rocket, the cargo Dragon closed out a 28-hour rendezvous with an ahead-of-schedule docking at the lab's forward port at 7:05 a.m. EDT as the two spacecraft were passing 260 miles abov...

News about space launch
NASA, SpaceX launch Dragon to the ISS on extended cargo, station boosting mission

This will be the 50th Dragon vehicle to visit the International Space Station, including the Dragon 1 vehicles that were berthed to the orbiting lab. Docking with the Harmony module is anticipated Monday, Aug. 25, at 7:30 a.m. EDT (1130 UTC).

News about space launch
NASA Science, Cargo Launch on 33rd SpaceX Resupply Mission to Station

Following a successful launch of NASA’s SpaceX 33rd commercial resupply mission, new scientific experiments and cargo for the agency are bound for the International Space Station. The SpaceX Dragon spacecraft, carrying more than 5,000 pounds of supplies t...


Newsletter sign-up

Weekly statistics, charts and insights to help you stay on top of the space industry.